Torna al catalogo

IUS R/B(1)

AttivoGTO
NORAD 16118·ROCKET BODY·🇺🇸 United States

Lanciato Oct 3, 1985 da Cape Canaveral Space Force Station

Loading…

TLE

ObsoletoSource: Space-Track

Epoca: Sep 12, 2026, 01:24 UTC

1 16118U 85092D   26255.05886737 -.00000052  00000-0  68279-3 0  9998
2 16118  25.1605 126.3114 7165068 239.3262  32.2377  2.29193116 62811

Traccia IUS R/B(1) in tempo reale con AllMySat

Download on the App Store